Regional Weather Roundup
Issued by NWS

Home | Current Version | Previous Version | Graphics & Text | Print | Product List | Glossary On
Versions: 1 2 3 4 5 6 7 8 9 10 11 12 13 14 15 16 17 18 19 20 21 22 23 24 25 26 27
000
ASUS45 KSLC 192010
RWRUT

UTAH REGIONAL WEATHER ROUNDUP
NATIONAL WEATHER SERVICE SALT LAKE CITY UT
200 PM MDT SAT APR 19 2014

UTZ001>011-023>025-192100-

NORTHERN UTAH

CITY           SKY/WX    TMP DP  RH WIND       PRES   REMARKS
HILL AFB       LGT RAIN  66  37  34 SW9       30.03S
LOGAN          MOSUNNY   65  38  36 VRB3      30.02S
OGDEN          MOSUNNY   68  39  34 SW13      30.01F
PROVO AIRPORT  PTSUNNY   70  36  28 SW5       30.02F
SALT LAKE CITY PTSUNNY   70  38  31 NW5       29.99F
VERNAL         MOSUNNY   66  32  28 S7        30.02F
WENDOVER       PTSUNNY   64  34  32 E8        30.01F
HEBER CITY     MOSUNNY   68  32  26 SW12G17   30.03F
WEST JORDAN    MOSUNNY   70  43  37 SE7       30.01F

$$

UTZ012>022-026-027-192100-

SOUTHERN UTAH

CITY           SKY/WX    TMP DP  RH WIND       PRES   REMARKS
BRYCE CANYON   CLOUDY    50  35  56 E16       30.16R
CEDAR CITY     MOSUNNY   69  28  21 SW6       30.04F
MILFORD        SUNNY     71  26  18 MISG      30.00F
MOAB/CYNLANDS  MOSUNNY   64  43  46 SE15      30.04F
PRICE          PTSUNNY   65  36  34 MISG      30.06F
ST GEORGE      PTCLDY    75  34  22 SW3       29.97F
KANAB          CLOUDY    66  32  28 CALM      30.08S

$$

REGIONAL REPORTS     COLORADO/ARIZONA

CITY           SKY/WX    TMP DP  RH WIND       PRES   REMARKS
CRAIG, CO      CLOUDY    58  39  49 W13       30.09S
GRAND JUNCTION PTSUNNY   60  46  59 NW8       30.08F
RIFLE          CLOUDY    60  39  45 W16       30.08F
MONTROSE       PTSUNNY   58  42  55 N9        30.12S
CORTEZ         MOSUNNY   63  34  33 SW9       30.10F
PAGE, AZ       PTSUNNY   69  36  29 CALM      30.03F
GRAND CANYON   LGT RAIN  55  36  48 NW7       30.12S
KINGMAN        PTSUNNY   73  36  25 S7        30.01F
FLAGSTAFF      MOSUNNY   60  25  26 SW13G18   30.13F

$$

REGIONAL REPORTS    NEVADA/IDAHO/WYOMING

CITY           SKY/WX    TMP DP  RH WIND       PRES   REMARKS
LAS VEGAS, NV  MOSUNNY   81  35  19 VRB5      29.91F
ELY            PTSUNNY   66  29  24 S7        30.04F
ELKO           SUNNY     68  26  20 MISG      30.00F
POCATELLO, ID  MOSUNNY   65  21  18 NW9       30.01F
BURLEY         SUNNY     66  29  24 CALM      29.97F
EVANSTON, WY   PTSUNNY   61  32  33 W15G24    30.09S
ROCK SPRINGS   PTSUNNY   62  28  27 NW8G16    30.07S

$$



USA.gov is the U.S. government's official web portal to all federal, state and local government web resources and services.